Time,TemperatureF,DewpointF,PressureIn,WindDirection,WindDirectionDegrees,WindSpeedMPH,WindSpeedGustMPH,Humidity,HourlyPrecipIn,Conditions,Clouds,dailyrainin,SoftwareType,DateUTC
2013-08-22 00:00:00,53.8,50.3,29.97,WNW,292,1.0,2.0,88,0.00,RA,,0.00,WeatherDisplay:10.37,2013-08-21 23:00:00,
2013-08-22 00:10:00,53.8,50.3,29.97,WNW,292,0.0,2.0,88,0.00,CLR,,0.00,WeatherDisplay:10.37,2013-08-21 23:10:00,
2013-08-22 00:20:00,54.3,51.1,29.97,WNW,292,1.0,3.0,89,0.00,CLR,,0.00,WeatherDisplay:10.37,2013-08-21 23:20:00,
2013-08-22 00:30:00,54.5,51.3,29.97,WNW,292,2.0,4.0,89,0.00,CLR,,0.00,WeatherDisplay:10.37,2013-08-21 23:30:00,
2013-08-22 00:40:00,55.0,52.2,29.98,WNW,292,0.0,2.0,90,0.00,CLR,,0.00,WeatherDisplay:10.37,2013-08-21 23:40:00,
2013-08-22 00:50:00,55.6,52.7,29.98,WNW,292,0.0,1.0,90,0.00,CLR,,0.00,WeatherDisplay:10.37,2013-08-21 23:50:00,
2013-08-22 01:00:00,56.0,53.2,29.97,WNW,292,3.0,4.0,90,0.00,CLR,,0.00,WeatherDisplay:10.37,2013-08-22 00:00:00,
2013-08-22 01:10:00,56.1,53.5,29.98,WNW,292,0.0,2.0,91,0.00,CLR,,0.00,WeatherDisplay:10.37,2013-08-22 00:10:00,
2013-08-22 01:20:00,56.3,53.4,29.97,WNW,292,1.0,1.0,90,0.00,CLR,,0.00,WeatherDisplay:10.37,2013-08-22 00:20:00,
2013-08-22 01:30:00,56.3,53.4,29.98,WNW,292,1.0,2.0,90,0.00,CLR,,0.00,WeatherDisplay:10.37,2013-08-22 00:30:00,
2013-08-22 01:40:00,56.7,53.8,29.97,WNW,292,0.0,2.0,90,0.00,CLR,,0.00,WeatherDisplay:10.37,2013-08-22 00:40:00,
2013-08-22 01:50:00,56.7,53.8,29.98,WNW,292,0.0,3.0,90,0.00,CLR,,0.00,WeatherDisplay:10.37,2013-08-22 00:50:00,
2013-08-22 02:00:00,57.0,54.1,29.98,NE,55,3.0,6.0,90,0.00,CLR,,0.00,WeatherDisplay:10.37,2013-08-22 01:00:00,
2013-08-22 02:10:00,58.1,55.5,29.98,ENE,75,2.0,11.0,91,0.00,CLR,,0.00,WeatherDisplay:10.37,2013-08-22 01:10:00,
2013-08-22 02:20:00,58.5,55.8,29.99,East,79,6.0,7.0,91,0.00,CLR,,0.00,WeatherDisplay:10.37,2013-08-22 01:20:00,
2013-08-22 02:30:00,58.3,55.4,29.99,East,90,6.0,10.0,90,0.00,CLR,,0.00,WeatherDisplay:10.37,2013-08-22 01:30:00,
2013-08-22 02:40:00,57.7,55.1,29.99,East,79,3.0,10.0,91,0.00,CLR,,0.00,WeatherDisplay:10.37,2013-08-22 01:40:00,
2013-08-22 02:50:00,57.4,54.8,29.99,East,82,2.0,8.0,91,0.00,CLR,,0.00,WeatherDisplay:10.37,2013-08-22 01:50:00,
2013-08-22 03:00:00,57.0,54.4,29.99,East,87,2.0,7.0,91,0.00,CLR,,0.00,WeatherDisplay:10.37,2013-08-22 02:00:00,
2013-08-22 03:10:00,56.8,54.2,29.99,East,83,3.0,8.0,91,0.00,CLR,,0.00,WeatherDisplay:10.37,2013-08-22 02:10:00,
2013-08-22 03:20:00,56.7,54.1,29.99,East,94,2.0,8.0,91,0.00,CLR,,0.00,WeatherDisplay:10.37,2013-08-22 02:20:00,
2013-08-22 03:30:00,56.7,54.1,29.99,East,99,3.0,8.0,91,0.00,CLR,,0.00,WeatherDisplay:10.37,2013-08-22 02:30:00,
2013-08-22 03:40:00,56.6,54.0,29.99,East,98,3.0,9.0,91,0.00,CLR,,0.00,WeatherDisplay:10.37,2013-08-22 02:40:00,
2013-08-22 03:50:00,56.5,53.9,29.99,East,84,5.0,7.0,91,0.00,CLR,,0.00,WeatherDisplay:10.37,2013-08-22 02:50:00,
2013-08-22 04:00:00,56.3,53.7,29.99,East,99,1.0,6.0,91,0.00,CLR,,0.00,WeatherDisplay:10.37,2013-08-22 03:00:00,
2013-08-22 04:10:00,56.3,53.7,29.99,East,89,3.0,12.0,91,0.00,CLR,,0.00,WeatherDisplay:10.37,2013-08-22 03:10:00,
2013-08-22 04:20:00,56.3,53.7,29.99,East,87,3.0,7.0,91,0.00,CLR,,0.00,WeatherDisplay:10.37,2013-08-22 03:20:00,
2013-08-22 04:30:00,56.1,53.8,29.99,East,93,1.0,5.0,92,0.00,CLR,,0.00,WeatherDisplay:10.37,2013-08-22 03:30:00,
2013-08-22 04:40:00,56.1,53.8,29.99,East,84,5.0,6.0,92,0.00,CLR,,0.00,WeatherDisplay:10.37,2013-08-22 03:40:00,
2013-08-22 04:50:00,56.1,53.8,30.00,ENE,65,2.0,4.0,92,0.00,CLR,,0.00,WeatherDisplay:10.37,2013-08-22 03:50:00,
2013-08-22 05:00:00,55.8,53.5,30.00,NE,47,3.0,3.0,92,0.00,CLR,,0.00,WeatherDisplay:10.37,2013-08-22 04:00:00,
2013-08-22 05:10:00,55.9,53.6,30.00,NE,48,1.0,4.0,92,0.00,CLR,,0.00,WeatherDisplay:10.37,2013-08-22 04:10:00,
2013-08-22 05:20:00,55.8,53.6,29.99,ENE,68,0.0,3.0,92,0.00,CLR,,0.00,WeatherDisplay:10.37,2013-08-22 04:20:00,
2013-08-22 05:30:00,55.8,54.7,29.99,ENE,68,0.0,1.0,96,0.00,CLR,,0.00,WeatherDisplay:10.37,2013-08-22 04:30:00,
2013-08-22 05:40:00,55.8,54.3,29.99,ENE,76,1.0,2.0,95,0.00,CLR,,0.00,WeatherDisplay:10.37,2013-08-22 04:40:00,
2013-08-22 05:50:00,55.8,54.6,29.99,East,87,1.0,2.0,96,0.00,CLR,,0.00,WeatherDisplay:10.37,2013-08-22 04:50:00,
2013-08-22 06:00:00,55.8,54.6,29.99,ENE,76,1.0,2.0,96,0.00,CLR,,0.00,WeatherDisplay:10.37,2013-08-22 05:00:00,
2013-08-22 06:10:00,55.6,54.5,30.00,NNE,22,0.0,1.0,96,0.00,CLR,,0.00,WeatherDisplay:10.37,2013-08-22 05:10:00,
2013-08-22 06:20:00,55.6,54.5,29.99,NE,34,0.0,2.0,96,0.00,CLR,,0.00,WeatherDisplay:10.37,2013-08-22 05:20:00,
2013-08-22 06:30:00,55.6,54.5,30.00,ESE,112,1.0,2.0,96,0.00,CLR,,0.00,WeatherDisplay:10.37,2013-08-22 05:30:00,
2013-08-22 06:40:00,55.6,54.5,30.00,SSE,164,1.0,4.0,96,0.00,CLR,,0.00,WeatherDisplay:10.37,2013-08-22 05:40:00,
2013-08-22 06:50:00,55.6,54.5,30.00,North,5,0.0,1.0,96,0.00,CLR,,0.00,WeatherDisplay:10.37,2013-08-22 05:50:00,
2013-08-22 07:00:00,55.7,54.6,30.00,NW,306,1.0,2.0,96,0.00,CLR,,0.00,WeatherDisplay:10.37,2013-08-22 06:00:00,
2013-08-22 07:10:00,55.8,54.6,30.00,WSW,252,1.0,3.0,96,0.00,CLR,,0.00,WeatherDisplay:10.37,2013-08-22 06:10:00,
2013-08-22 07:20:00,55.9,54.8,30.00,East,95,2.0,4.0,96,0.00,CLR,,0.00,WeatherDisplay:10.37,2013-08-22 06:20:00,
2013-08-22 07:30:00,56.0,54.9,30.00,ENE,72,0.0,4.0,96,0.00,CLR,,0.00,WeatherDisplay:10.37,2013-08-22 06:30:00,
2013-08-22 07:40:00,56.3,55.2,30.00,ESE,104,1.0,3.0,96,0.00,CLR,,0.00,WeatherDisplay:10.37,2013-08-22 06:40:00,
2013-08-22 07:50:00,56.6,55.4,30.00,ESE,106,1.0,4.0,96,0.00,CLR,,0.00,WeatherDisplay:10.37,2013-08-22 06:50:00,
2013-08-22 08:00:00,56.8,55.7,30.00,East,93,0.0,2.0,96,0.00,CLR,,0.00,WeatherDisplay:10.37,2013-08-22 07:00:00,
2013-08-22 08:10:00,57.3,56.2,30.00,East,81,0.0,3.0,96,0.00,CLR,,0.00,WeatherDisplay:10.37,2013-08-22 07:10:00,
2013-08-22 08:20:00,57.4,55.1,30.00,East,88,2.0,3.0,92,0.00,CLR,,0.00,WeatherDisplay:10.37,2013-08-22 07:20:00,
2013-08-22 08:30:00,57.6,55.3,30.00,ENE,78,3.0,6.0,92,0.00,CLR,,0.00,WeatherDisplay:10.37,2013-08-22 07:30:00,
2013-08-22 08:40:00,58.1,55.2,30.00,ENE,69,10.0,14.0,90,0.00,CLR,,0.00,WeatherDisplay:10.37,2013-08-22 07:40:00,
2013-08-22 08:50:00,58.1,54.9,30.00,ENE,59,6.0,12.0,89,0.00,CLR,,0.00,WeatherDisplay:10.37,2013-08-22 07:50:00,
2013-08-22 09:00:00,58.8,55.6,30.00,ENE,71,2.0,9.0,89,0.00,CLR,,0.00,WeatherDisplay:10.37,2013-08-22 08:00:00,
2013-08-22 09:10:00,59.4,56.1,30.00,East,86,3.0,5.0,89,0.00,CLR,,0.00,WeatherDisplay:10.37,2013-08-22 08:10:00,
2013-08-22 09:20:00,59.4,55.8,30.00,ENE,77,2.0,6.0,88,0.00,CLR,,0.00,WeatherDisplay:10.37,2013-08-22 08:20:00,
2013-08-22 09:30:00,59.2,55.3,30.00,ENE,57,5.0,9.0,87,0.00,CLR,,0.00,WeatherDisplay:10.37,2013-08-22 08:30:00,
2013-08-22 09:40:00,59.0,55.1,30.00,ENE,77,2.0,9.0,87,0.00,CLR,,0.00,WeatherDisplay:10.37,2013-08-22 08:40:00,
2013-08-22 09:50:00,59.5,55.6,30.00,ENE,57,6.0,8.0,87,0.00,CLR,,0.00,WeatherDisplay:10.37,2013-08-22 08:50:00,
2013-08-22 10:00:00,60.5,56.3,30.00,ENE,65,6.0,10.0,86,0.00,CLR,,0.00,WeatherDisplay:10.37,2013-08-22 09:00:00,
2013-08-22 10:10:00,60.6,56.0,30.00,East,79,6.0,9.0,85,0.00,CLR,,0.00,WeatherDisplay:10.37,2013-08-22 09:10:00,
2013-08-22 10:20:00,60.4,55.6,30.00,ENE,70,7.0,8.0,84,0.00,CLR,,0.00,WeatherDisplay:10.37,2013-08-22 09:20:00,
2013-08-22 10:30:00,59.7,54.9,30.00,East,83,3.0,7.0,84,0.00,CLR,,0.00,WeatherDisplay:10.37,2013-08-22 09:30:00,
2013-08-22 10:40:00,60.3,55.4,30.00,East,83,5.0,8.0,84,0.00,CLR,,0.00,WeatherDisplay:10.37,2013-08-22 09:40:00,
2013-08-22 10:50:00,60.4,55.6,30.00,ENE,71,3.0,8.0,84,0.00,CLR,,0.00,WeatherDisplay:10.37,2013-08-22 09:50:00,
2013-08-22 11:00:00,61.0,56.2,30.00,ENE,73,7.0,10.0,84,0.00,CLR,,0.00,WeatherDisplay:10.37,2013-08-22 10:00:00,
2013-08-22 11:10:00,62.0,56.8,30.00,ENE,75,7.0,10.0,83,0.00,CLR,,0.00,WeatherDisplay:10.37,2013-08-22 10:10:00,
2013-08-22 11:20:00,62.8,57.2,30.00,East,85,9.0,10.0,82,0.00,CLR,,0.00,WeatherDisplay:10.37,2013-08-22 10:20:00,
2013-08-22 11:30:00,63.3,57.0,30.00,East,89,2.0,8.0,80,0.00,CLR,,0.00,WeatherDisplay:10.37,2013-08-22 10:30:00,
2013-08-22 11:40:00,64.2,57.6,30.00,East,84,3.0,7.0,79,0.00,CLR,,0.00,WeatherDisplay:10.37,2013-08-22 10:40:00,
2013-08-22 11:50:00,64.1,56.7,30.00,East,96,2.0,6.0,77,0.00,CLR,,0.00,WeatherDisplay:10.37,2013-08-22 10:50:00,
2013-08-22 13:30:00,62.1,56.2,30.00,ESE,106,5.0,7.0,81,0.00,CLR,,0.00,WeatherDisplay:10.37,2013-08-22 12:30:00,
2013-08-22 13:40:00,62.1,56.2,29.99,East,96,1.0,6.0,81,0.00,CLR,,0.00,WeatherDisplay:10.37,2013-08-22 12:40:00,
2013-08-22 14:00:00,63.9,57.9,29.99,ESE,106,2.0,10.0,81,0.00,CLR,,0.00,WeatherDisplay:10.37,2013-08-22 13:00:00,
2013-08-22 14:10:00,64.6,58.3,29.99,East,90,6.0,8.0,80,0.00,CLR,,0.00,WeatherDisplay:10.37,2013-08-22 13:10:00,
2013-08-22 14:20:00,64.4,57.4,29.99,East,90,6.0,8.0,78,0.00,CLR,,0.00,WeatherDisplay:10.37,2013-08-22 13:20:00,
2013-08-22 14:30:00,64.5,57.5,29.99,East,93,3.0,10.0,78,0.00,CLR,,0.00,WeatherDisplay:10.37,2013-08-22 13:30:00,
2013-08-22 14:40:00,65.7,58.0,29.98,East,90,9.0,14.0,76,0.00,CLR,,0.00,WeatherDisplay:10.37,2013-08-22 13:40:00,
2013-08-22 14:50:00,66.5,57.9,29.98,ESE,103,5.0,12.0,74,0.00,CLR,,0.00,WeatherDisplay:10.37,2013-08-22 13:50:00,
2013-08-22 15:00:00,67.7,58.3,29.97,East,93,5.0,12.0,72,0.00,CLR,,0.00,WeatherDisplay:10.37,2013-08-22 14:00:00,
2013-08-22 15:10:00,68.7,58.5,29.97,East,94,3.0,10.0,70,0.00,CLR,,0.00,WeatherDisplay:10.37,2013-08-22 14:10:00,
2013-08-22 15:20:00,68.1,57.1,29.97,East,93,2.0,12.0,68,0.00,CLR,,0.00,WeatherDisplay:10.37,2013-08-22 14:20:00,
2013-08-22 15:30:00,67.3,56.3,29.97,East,96,5.0,12.0,68,0.00,CLR,,0.00,WeatherDisplay:10.37,2013-08-22 14:30:00,
2013-08-22 15:40:00,66.7,56.6,29.97,East,87,6.0,9.0,70,0.00,CLR,,0.00,WeatherDisplay:10.37,2013-08-22 14:40:00,
2013-08-22 15:50:00,65.7,55.6,29.97,East,88,6.0,14.0,70,0.00,CLR,,0.00,WeatherDisplay:10.37,2013-08-22 14:50:00,
2013-08-22 16:00:00,65.3,56.0,29.97,East,99,7.0,13.0,72,0.00,CLR,,0.00,WeatherDisplay:10.37,2013-08-22 15:00:00,
2013-08-22 16:10:00,65.1,56.6,29.96,East,86,8.0,13.0,74,0.00,CLR,,0.00,WeatherDisplay:10.37,2013-08-22 15:10:00,
2013-08-22 16:20:00,65.3,57.2,29.96,East,82,6.0,15.0,75,0.00,CLR,,0.00,WeatherDisplay:10.37,2013-08-22 15:20:00,
2013-08-22 16:30:00,66.6,57.6,29.95,East,97,9.0,13.0,73,0.00,CLR,,0.00,WeatherDisplay:10.37,2013-08-22 15:30:00,
2013-08-22 16:40:00,66.5,57.5,29.96,East,81,9.0,13.0,73,0.00,CLR,,0.00,WeatherDisplay:10.37,2013-08-22 15:40:00,
2013-08-22 16:50:00,65.4,56.2,29.95,ENE,75,13.0,15.0,72,0.00,CLR,,0.00,WeatherDisplay:10.37,2013-08-22 15:50:00,
2013-08-22 17:00:00,65.1,56.6,29.95,East,85,5.0,13.0,74,0.00,CLR,,0.00,WeatherDisplay:10.37,2013-08-22 16:00:00,
2013-08-22 17:10:00,64.5,56.1,29.95,ESE,105,8.0,13.0,74,0.00,CLR,,0.00,WeatherDisplay:10.37,2013-08-22 16:10:00,
2013-08-22 17:20:00,63.9,55.8,29.95,East,94,6.0,14.0,75,0.00,CLR,,0.00,WeatherDisplay:10.37,2013-08-22 16:20:00,
2013-08-22 17:30:00,63.7,55.7,29.95,East,94,6.0,12.0,75,0.00,CLR,,0.00,WeatherDisplay:10.37,2013-08-22 16:30:00,
2013-08-22 17:40:00,63.9,56.1,29.95,East,85,7.0,11.0,76,0.00,CLR,,0.00,WeatherDisplay:10.37,2013-08-22 16:40:00,
2013-08-22 17:50:00,63.8,56.1,29.94,East,94,5.0,10.0,76,0.00,CLR,,0.00,WeatherDisplay:10.37,2013-08-22 16:50:00,
2013-08-22 18:00:00,63.5,55.8,29.94,East,85,3.0,11.0,76,0.00,CLR,,0.00,WeatherDisplay:10.37,2013-08-22 17:00:00,
2013-08-22 18:10:00,62.8,55.1,29.94,ESE,103,2.0,8.0,76,0.00,CLR,,0.00,WeatherDisplay:10.37,2013-08-22 17:10:00,
2013-08-22 18:20:00,62.0,54.4,29.93,East,80,5.0,9.0,76,0.00,CLR,,0.00,WeatherDisplay:10.37,2013-08-22 17:20:00,
2013-08-22 18:30:00,61.3,54.4,29.93,East,84,6.0,9.0,78,0.00,CLR,,0.00,WeatherDisplay:10.37,2013-08-22 17:30:00,
2013-08-22 18:40:00,61.2,54.6,29.93,ENE,78,5.0,9.0,79,0.00,CLR,,0.00,WeatherDisplay:10.37,2013-08-22 17:40:00,
2013-08-22 18:50:00,61.2,54.6,29.93,East,84,5.0,8.0,79,0.00,CLR,,0.00,WeatherDisplay:10.37,2013-08-22 17:50:00,
2013-08-22 19:00:00,61.1,54.8,29.93,East,81,7.0,10.0,80,0.00,CLR,,0.00,WeatherDisplay:10.37,2013-08-22 18:00:00,
2013-08-22 19:10:00,60.5,54.3,29.92,East,86,7.0,10.0,80,0.00,CLR,,0.00,WeatherDisplay:10.37,2013-08-22 18:10:00,
2013-08-22 19:20:00,59.7,53.9,29.93,East,84,6.0,9.0,81,0.00,CLR,,0.00,WeatherDisplay:10.37,2013-08-22 18:20:00,
2013-08-22 19:30:00,59.6,54.4,29.92,East,88,8.0,11.0,83,0.00,CLR,,0.00,WeatherDisplay:10.37,2013-08-22 18:30:00,
2013-08-22 19:50:00,59.2,54.3,29.92,East,92,5.0,9.0,84,0.00,CLR,,0.00,WeatherDisplay:10.37,2013-08-22 18:50:00,
2013-08-22 20:00:00,58.8,53.9,29.92,East,88,6.0,10.0,84,0.00,CLR,,0.00,WeatherDisplay:10.37,2013-08-22 19:00:00,
2013-08-22 20:10:00,58.5,54.0,29.92,ENE,74,6.0,11.0,85,0.00,CLR,,0.00,WeatherDisplay:10.37,2013-08-22 19:10:00,
2013-08-22 20:20:00,58.4,53.9,29.93,East,86,3.0,13.0,85,0.00,CLR,,0.00,WeatherDisplay:10.37,2013-08-22 19:20:00,
2013-08-22 20:30:00,57.9,53.8,29.93,East,94,5.0,8.0,86,0.00,CLR,,0.00,WeatherDisplay:10.37,2013-08-22 19:30:00,
2013-08-22 20:40:00,57.9,54.1,29.93,ENE,75,8.0,10.0,87,0.00,CLR,,0.00,WeatherDisplay:10.37,2013-08-22 19:40:00,
2013-08-22 20:50:00,57.6,53.7,29.93,East,81,6.0,12.0,87,0.00,CLR,,0.00,WeatherDisplay:10.37,2013-08-22 19:50:00,
2013-08-22 21:10:00,56.7,53.1,29.93,East,85,7.0,12.0,88,0.00,CLR,,0.00,WeatherDisplay:10.37,2013-08-22 20:10:00,
2013-08-22 21:20:00,56.4,52.9,29.93,ENE,75,7.0,9.0,88,0.00,CLR,,0.00,WeatherDisplay:10.37,2013-08-22 20:20:00,
2013-08-22 21:30:00,56.5,53.3,29.93,East,82,6.0,14.0,89,0.00,CLR,,0.00,WeatherDisplay:10.37,2013-08-22 20:30:00,
2013-08-22 21:40:00,56.3,53.4,29.93,East,82,7.0,10.0,90,0.00,CLR,,0.00,WeatherDisplay:10.37,2013-08-22 20:40:00,
2013-08-22 21:50:00,56.0,53.1,29.92,East,86,6.0,10.0,90,0.00,CLR,,0.00,WeatherDisplay:10.37,2013-08-22 20:50:00,
2013-08-22 22:00:00,55.8,52.9,29.92,East,95,5.0,12.0,90,0.00,CLR,,0.00,WeatherDisplay:10.37,2013-08-22 21:00:00,
2013-08-22 22:10:00,55.8,52.9,29.92,ESE,103,2.0,7.0,90,0.00,CLR,,0.00,WeatherDisplay:10.37,2013-08-22 21:10:00,
2013-08-22 22:20:00,55.8,53.2,29.92,East,82,2.0,9.0,91,0.00,CLR,,0.00,WeatherDisplay:10.37,2013-08-22 21:20:00,
2013-08-22 22:30:00,55.6,53.0,29.92,East,80,6.0,9.0,91,0.00,CLR,,0.00,WeatherDisplay:10.37,2013-08-22 21:30:00,
2013-08-22 22:40:00,55.6,53.0,29.91,East,97,2.0,7.0,91,0.00,CLR,,0.00,WeatherDisplay:10.37,2013-08-22 21:40:00,
2013-08-22 22:50:00,55.6,53.0,29.91,East,99,5.0,7.0,91,0.00,CLR,,0.00,WeatherDisplay:10.37,2013-08-22 21:50:00,
2013-08-22 23:00:00,55.8,53.2,29.91,East,81,7.0,9.0,91,0.00,CLR,,0.00,WeatherDisplay:10.37,2013-08-22 22:00:00,
2013-08-22 23:10:00,55.8,53.5,29.91,East,84,5.0,8.0,92,0.00,CLR,,0.00,WeatherDisplay:10.37,2013-08-22 22:10:00,
2013-08-22 23:20:00,55.6,53.3,29.91,ESE,105,2.0,7.0,92,0.00,CLR,,0.00,WeatherDisplay:10.37,2013-08-22 22:20:00,
2013-08-22 23:30:00,55.7,53.4,29.91,East,100,3.0,12.0,92,0.00,CLR,,0.00,WeatherDisplay:10.37,2013-08-22 22:30:00,
2013-08-22 23:40:00,55.7,53.4,29.90,East,92,5.0,9.0,92,0.00,CLR,,0.00,WeatherDisplay:10.37,2013-08-22 22:40:00,
2013-08-22 23:50:00,55.7,53.4,29.90,East,84,7.0,9.0,92,0.00,CLR,,0.00,WeatherDisplay:10.37,2013-08-22 22:50:00,